EW6576 Weather Reports


Display with metric or nautical units.
time (UTC)temp
F
wind
direction
speed
MPH
gust
MPH
rain 1hr
in
rain 24hr
in
rain mn
in
humidity
%
barometer
mb
20260508045945 58 166 1.0 1.0 0.00 0.00 0.00 95 1016.6
20260508045442 58 167 0.0 0.0 0.00 0.00 0.00 95 1016.5
20260508044940 58 143 1.0 1.0 0.00 0.00 0.00 95 1016.7
20260508044437 58 133 1.0 1.0 0.00 0.00 0.00 95 1016.7
20260508043932 58 132 1.0 1.0 0.00 0.00 0.00 95 1016.6
20260508043430 58 115 2.0 2.0 0.00 0.00 0.00 95 1016.2
20260508042926 59 144 1.0 1.0 0.00 0.00 0.00 95 1016.2
20260508042424 59 124 2.0 2.0 0.00 0.00 0.00 94 1016.2
20260508041921 59 108 3.0 5.0 0.00 0.00 0.00 94 1016.1
20260508041417 59 169 1.0 2.0 0.00 0.00 0.00 94 1016.0
20260508040913 59 97 2.0 2.0 0.00 0.00 0.00 94 1016.2
20260508040411 59 87 3.0 3.0 0.00 0.00 0.00 94 1016.0
20260508035908 59 159 3.0 3.0 0.00 0.00 0.00 93 1016.0
20260508035400 59 136 2.0 2.0 0.00 0.00 0.00 93 1015.7
20260508034856 59 124 1.0 2.0 0.00 0.00 0.00 93 1015.5
20260508034353 59 161 3.0 3.0 0.00 0.00 0.00 93 1015.4
20260508033844 59 129 2.0 3.0 0.00 0.00 0.00 92 1015.5
20260508033343 59 129 1.0 1.0 0.00 0.00 0.00 92 1015.2
20260508032840 59 92 0.0 0.0 0.00 0.00 0.00 91 1015.2
20260508032337 60 115 0.0 1.0 0.00 0.00 0.00 90 1015.1
20260508031833 60 136 1.0 1.0 0.00 0.00 0.00 90 1015.3
20260508031331 60 52 1.0 1.0 0.00 0.00 0.00 90 1015.2
20260508030827 60 86 1.0 2.0 0.00 0.00 0.00 90 1014.9
20260508030324 60 126 0.0 1.0 0.00 0.00 0.00 89 1014.7
20260508025821 60 144 2.0 3.0 0.00 0.00 0.00 89 1014.8
20260508025318 61 111 1.0 1.0 0.00 0.00 0.00 88 1014.8
20260508024815 61 154 4.0 6.0 0.00 0.00 0.00 87 1014.8
20260508024311 62 118 1.0 1.0 0.00 0.00 0.00 86 1014.9
20260508023808 62 97 4.0 5.0 0.00 0.00 0.00 86 1014.7
20260508023305 62 98 3.0 5.0 0.00 0.00 0.00 85 1014.7
20260508022801 62 130 1.0 1.0 0.00 0.00 0.00 84 1014.7
20260508022257 63 81 3.0 5.0 0.00 0.00 0.00 84 1014.5
20260508021755 63 116 3.0 3.0 0.00 0.00 0.00 83 1014.5
20260508021250 63 135 2.0 3.0 0.00 0.00 0.00 83 1014.5
20260508020747 64 168 1.0 1.0 0.00 0.00 0.00 82 1014.4
20260508020245 64 121 3.0 3.0 0.00 0.00 0.00 81 1014.3
20260508015741 64 106 3.0 5.0 0.00 0.00 0.00 81 1014.5
20260508015238 65 110 3.0 3.0 0.00 0.00 0.00 80 1014.5
20260508014735 65 129 5.0 5.0 0.00 0.00 0.00 79 1014.4
20260508014232 65 112 3.0 3.0 0.00 0.00 0.00 79 1014.4
20260508013728 66 129 4.0 5.0 0.00 0.00 0.00 78 1014.5
20260508013224 66 109 5.0 6.0 0.00 0.00 0.00 78 1014.2
20260508012722 66 122 3.0 3.0 0.00 0.00 0.00 77 1014.3
20260508012219 66 109 3.0 3.0 0.00 0.00 0.00 77 1014.5
20260508011717 67 142 4.0 5.0 0.00 0.00 0.00 76 1014.4
20260508011214 67 118 3.0 3.0 0.00 0.00 0.00 76 1014.5
20260508010711 68 72 5.0 6.0 0.00 0.00 0.00 75 1014.3
20260508010209 67 105 3.0 5.0 0.00 0.00 0.00 75 1014.5
20260508005706 68 130 4.0 5.0 0.00 0.00 0.00 75 1014.2
20260508005202 68 127 3.0 3.0 0.00 0.00 0.00 74 1014.4
20260508004658 68 151 3.0 6.0 0.00 0.00 0.00 74 1014.1
20260508004154 68 134 4.0 5.0 0.00 0.00 0.00 73 1014.4
20260508003651 69 112 4.0 5.0 0.00 0.00 0.00 72 1014.3
20260508003149 69 181 1.0 2.0 0.00 0.00 0.00 73 1014.3
20260508002645 68 161 2.0 3.0 0.00 0.00 0.00 73 1014.2
20260508002143 69 165 4.0 5.0 0.00 0.00 0.00 73 1014.0
20260508001638 68 100 5.0 7.0 0.00 0.00 0.00 73 1014.3
20260508001134 69 121 4.0 6.0 0.00 0.00 0.00 73 1014.3
20260508000630 69 197 4.0 5.0 0.00 0.00 0.00 72 1014.2
20260508000128 70 112 6.0 7.0 0.00 0.00 0.00 71 1014.3
20260507235624 69 116 4.0 5.0 0.00 0.00 0.00 72 1014.3
20260507235122 69 100 6.0 7.0 0.00 0.00 0.00 73 1014.2
20260507234618 70 101 8.0 9.0 0.00 0.00 0.00 71 1014.2
20260507234115 70 108 3.0 6.0 0.00 0.00 0.00 71 1014.2
20260507233612 71 102 3.0 5.0 0.00 0.00 0.00 71 1014.2
20260507233110 70 145 3.0 3.0 0.00 0.00 0.00 71 1014.5
20260507232611 71 105 1.0 2.0 0.00 0.00 0.00 70 1014.4
20260507232104 70 147 7.0 8.0 0.00 0.00 0.00 71 1014.0
20260507231600 71 166 2.0 3.0 0.00 0.00 0.00 70 1014.1
20260507231057 71 140 1.0 1.0 0.00 0.00 0.00 69 1014.2
20260507230553 71 89 2.0 3.0 0.00 0.00 0.00 70 1014.1
20260507230050 71 81 5.0 8.0 0.00 0.00 0.00 70 1014.1
20260507225545 71 160 4.0 6.0 0.00 0.00 0.00 70 1014.2
20260507225042 71 111 3.0 5.0 0.00 0.00 0.00 69 1014.3
20260507224537 71 255 3.0 3.0 0.00 0.00 0.00 68 1014.4
20260507224034 71 117 6.0 7.0 0.00 0.00 0.00 70 1014.4
20260507223531 70 110 6.0 9.0 0.00 0.00 0.00 71 1014.2
20260507223028 70 148 2.0 3.0 0.00 0.00 0.00 71 1014.5
20260507222525 70 124 6.0 8.0 0.00 0.00 0.00 71 1014.3
20260507222021 70 107 6.0 7.0 0.00 0.00 0.00 72 1014.2
20260507221517 70 145 5.0 8.0 0.00 0.00 0.00 70 1014.4
20260507221015 71 84 7.0 9.0 0.00 0.00 0.00 70 1014.5
20260507220512 70 124 5.0 7.0 0.00 0.00 0.00 70 1014.5
20260507220009 70 97 7.0 8.0 0.00 0.00 0.00 71 1014.6
20260507215505 71 219 7.0 8.0 0.00 0.00 0.00 70 1014.7
20260507215003 71 103 8.0 10.0 0.00 0.00 0.00 70 1014.9
20260507214500 72 136 4.0 7.0 0.00 0.00 0.00 69 1014.7
20260507213955 71 175 3.0 5.0 0.00 0.00 0.00 69 1014.6
20260507213452 70 90 7.0 9.0 0.00 0.00 0.00 70 1014.8
20260507212949 71 124 9.0 9.0 0.00 0.00 0.00 68 1015.0
20260507212444 71 126 8.0 10.0 0.00 0.00 0.00 69 1014.8
20260507211942 71 108 7.0 10.0 0.00 0.00 0.00 70 1014.8
20260507211438 71 188 5.0 7.0 0.00 0.00 0.00 70 1014.8
20260507210935 71 145 10.0 11.0 0.00 0.00 0.00 69 1014.8
20260507210432 72 123 6.0 9.0 0.00 0.00 0.00 67 1014.8
20260507205929 71 105 6.0 9.0 0.00 0.00 0.00 69 1014.9
20260507205426 73 101 10.0 14.0 0.00 0.00 0.00 68 1015.0
20260507204922 71 109 4.0 5.0 0.00 0.00 0.00 69 1014.8
20260507204418 72 110 9.0 11.0 0.00 0.00 0.00 68 1015.2
20260507203916 73 169 5.0 6.0 0.00 0.00 0.00 68 1015.0
20260507203414 73 160 4.0 5.0 0.00 0.00 0.00 66 1014.9
20260507202910 73 152 5.0 8.0 0.00 0.00 0.00 67 1015.0
20260507202407 73 204 5.0 5.0 0.00 0.00 0.00 67 1015.1
20260507201902 73 119 8.0 9.0 0.00 0.00 0.00 66 1015.0
20260507201358 73 85 4.0 6.0 0.00 0.00 0.00 66 1015.1
20260507200854 73 108 5.0 7.0 0.00 0.00 0.00 68 1014.9
20260507200350 73 60 4.0 6.0 0.00 0.00 0.00 68 1015.2
20260507195847 72 117 2.0 3.0 0.00 0.00 0.00 68 1015.2
20260507195344 72 104 9.0 10.0 0.00 0.00 0.00 67 1015.1
20260507194841 72 128 6.0 7.0 0.00 0.00 0.00 67 1014.8
20260507194338 73 173 4.0 6.0 0.00 0.00 0.00 67 1015.0
20260507193834 73 74 3.0 5.0 0.00 0.00 0.00 67 1015.2
20260507193332 73 107 2.0 3.0 0.00 0.00 0.00 68 1015.1
20260507192827 73 142 3.0 5.0 0.00 0.00 0.00 68 1015.1
20260507192324 72 169 6.0 10.0 0.00 0.00 0.00 67 1015.4
20260507191821 72 154 6.0 13.0 0.00 0.00 0.00 69 1015.5
20260507191317 72 103 5.0 8.0 0.00 0.00 0.00 68 1015.5
20260507190814 73 185 3.0 6.0 0.00 0.00 0.00 67 1015.4
20260507190312 72 123 8.0 10.0 0.00 0.00 0.00 67 1015.5
20260507185811 73 98 10.0 13.0 0.00 0.00 0.00 67 1015.5
20260507185307 74 163 5.0 7.0 0.00 0.00 0.00 65 1015.5
20260507184804 73 158 4.0 5.0 0.00 0.00 0.00 66 1015.7
20260507184302 73 122 6.0 7.0 0.00 0.00 0.00 67 1015.4
20260507183759 73 130 5.0 6.0 0.00 0.00 0.00 67 1015.5
20260507183256 73 77 3.0 3.0 0.00 0.00 0.00 67 1015.8
20260507182753 73 126 4.0 6.0 0.00 0.00 0.00 67 1016.0
20260507182248 74 67 4.0 5.0 0.00 0.00 0.00 65 1015.8
20260507181745 72 122 3.0 6.0 0.00 0.00 0.00 68 1015.7
20260507181241 72 90 2.0 6.0 0.00 0.00 0.00 67 1015.9
20260507180738 72 138 1.0 2.0 0.00 0.00 0.00 68 1015.7
20260507180235 74 100 3.0 3.0 0.00 0.00 0.00 65 1015.9
20260507175730 73 190 2.0 2.0 0.00 0.00 0.00 65 1015.9
20260507175228 72 5 3.0 3.0 0.00 0.00 0.00 66 1016.0
20260507174725 71 160 0.0 1.0 0.00 0.00 0.00 69 1016.0
20260507174223 70 107 1.0 1.0 0.00 0.00 0.00 69 1016.1
20260507173720 71 117 2.0 2.0 0.00 0.00 0.00 68 1016.3
20260507173217 71 359 3.0 5.0 0.00 0.00 0.00 68 1016.2
20260507172714 71 129 1.0 1.0 0.00 0.00 0.00 68 1016.3
20260507172211 70 177 0.0 1.0 0.00 0.00 0.00 70 1016.1
20260507171710 70 344 2.0 2.0 0.00 0.00 0.00 69 1016.2
20260507171208 69 167 0.0 0.0 0.00 0.00 0.00 72 1016.3
20260507170705 69 250 3.0 3.0 0.00 0.00 0.00 72 1016.6
20260507170202 69 43 0.0 1.0 0.00 0.00 0.00 72 1016.6
20260507165657 69 31 2.0 2.0 0.00 0.00 0.00 72 1016.2
20260507165154 68 22 2.0 2.0 0.00 0.00 0.00 74 1016.5
20260507164650 67 14 1.0 2.0 0.00 0.00 0.00 75 1016.5
20260507164147 68 120 0.0 0.0 0.00 0.00 0.00 75 1016.3
20260507163644 67 241 1.0 1.0 0.00 0.00 0.00 76 1016.7
20260507163142 66 273 1.0 2.0 0.00 0.00 0.00 77 1016.6
20260507162637 67 111 1.0 1.0 0.00 0.00 0.00 76 1016.6
20260507162129 66 115 1.0 2.0 0.00 0.00 0.00 78 1016.7
20260507161625 65 31 1.0 1.0 0.00 0.00 0.00 79 1016.6
20260507161122 64 19 2.0 2.0 0.00 0.00 0.00 80 1016.9
20260507160618 65 110 1.0 2.0 0.00 0.00 0.00 81 1016.9
20260507160114 64 3 2.0 3.0 0.00 0.00 0.00 80 1016.8
20260507155610 63 120 0.0 0.0 0.00 0.00 0.00 82 1016.9
20260507155107 63 69 1.0 3.0 0.00 0.00 0.00 82 1016.6
20260507154604 63 58 0.0 1.0 0.00 0.00 0.00 84 1017.0
20260507154101 62 297 2.0 2.0 0.00 0.00 0.00 84 1017.0
20260507153557 62 63 1.0 1.0 0.00 0.00 0.00 85 1017.0
20260507153054 61 293 3.0 3.0 0.00 0.00 0.00 87 1016.8
20260507152550 60 11 0.0 1.0 0.00 0.00 0.00 91 1017.0
20260507152046 58 124 0.0 0.0 0.00 0.00 0.00 94 1016.9
20260507151542 58 80 1.0 2.0 0.00 0.00 0.00 96 1016.9
20260507151040 57 95 1.0 1.0 0.00 0.00 0.00 97 1017.1
20260507150537 56 82 0.0 0.0 0.00 0.00 0.00 97 1016.8
20260507150033 56 69 1.0 2.0 0.00 0.00 0.00 97 1017.0
20260507145528 56 103 2.0 2.0 0.00 0.00 0.00 98 1016.8
20260507145026 56 161 1.0 1.0 0.00 0.00 0.00 98 1017.0
20260507144523 56 180 2.0 2.0 0.00 0.00 0.00 98 1016.8
20260507144020 56 140 2.0 2.0 0.00 0.00 0.00 97 1016.8
20260507143517 56 181 0.0 0.0 0.00 0.00 0.00 98 1016.7
20260507143015 56 153 1.0 2.0 0.00 0.00 0.00 97 1016.7
20260507142510 56 137 2.0 2.0 0.00 0.00 0.00 98 1016.6
20260507142007 56 98 1.0 1.0 0.00 0.00 0.00 98 1016.7
20260507141503 56 141 0.0 0.0 0.00 0.00 0.00 98 1016.7
20260507140959 56 132 0.0 1.0 0.00 0.00 0.00 98 1016.7
20260507140456 56 174 0.0 1.0 0.00 0.00 0.00 98 1016.6
20260507135953 55 174 0.0 0.0 0.00 0.00 0.00 98 1016.5
20260507135451 55 174 0.0 0.0 0.00 0.00 0.00 98 1016.6
20260507134948 55 177 1.0 1.0 0.00 0.00 0.00 99 1016.5
20260507134444 55 183 0.0 0.0 0.00 0.00 0.00 99 1016.5
20260507133940 55 183 0.0 0.0 0.00 0.00 0.00 99 1016.7
20260507133436 54 183 0.0 0.0 0.00 0.00 0.00 99 1016.3
20260507132935 54 183 0.0 0.0 0.00 0.00 0.00 99 1016.6
20260507132431 54 183 0.0 0.0 0.00 0.00 0.00 99 1016.3
20260507131927 54 183 0.0 0.0 0.00 0.00 0.00 99 1016.6
20260507131425 54 182 0.0 0.0 0.00 0.00 0.00 99 1016.5
20260507130921 54 182 0.0 0.0 0.00 0.00 0.00 99 1016.5
20260507130418 53 182 0.0 0.0 0.00 0.00 0.00 99 1016.1
20260507125917 53 184 0.0 0.0 0.00 0.00 0.00 99 1016.1
20260507125415 53 172 0.0 0.0 0.00 0.00 0.00 99 1016.1
20260507124912 53 172 0.0 0.0 0.00 0.00 0.00 99 1016.0
20260507124408 53 173 0.0 0.0 0.00 0.00 0.00 99 1016.0
20260507123907 53 173 0.0 0.0 0.00 0.00 0.00 99 1015.9
20260507123403 52 173 0.0 0.0 0.00 0.00 0.00 99 1016.1
20260507122900 52 173 0.0 0.0 0.00 0.00 0.00 99 1016.1
20260507122355 52 173 0.0 0.0 0.00 0.00 0.00 99 1015.9
20260507121851 52 173 0.0 0.0 0.00 0.00 0.00 99 1016.0
20260507121347 52 173 0.0 0.0 0.00 0.00 0.00 99 1015.6
20260507120844 52 172 0.0 0.0 0.00 0.00 0.00 99 1015.8
20260507120340 52 172 0.0 0.0 0.00 0.00 0.00 99 1015.8
20260507115836 51 172 0.0 0.0 0.00 0.00 0.00 99 1016.0
20260507115332 51 172 0.0 0.0 0.00 0.00 0.00 99 1015.8
20260507114828 51 171 0.0 0.0 0.00 0.00 0.00 99 1016.0
20260507114325 51 172 0.0 0.0 0.00 0.00 0.00 99 1016.1
20260507113823 51 172 0.0 0.0 0.00 0.00 0.00 99 1015.8
20260507113320 51 162 0.0 0.0 0.00 0.00 0.00 99 1015.9
20260507112817 50 162 0.0 0.0 0.00 0.00 0.00 99 1015.7
20260507112314 50 161 0.0 0.0 0.00 0.00 0.00 99 1015.8
20260507111812 51 162 0.0 0.0 0.00 0.00 0.00 99 1016.1
20260507111308 51 162 0.0 0.0 0.00 0.00 0.00 99 1016.1
20260507110804 51 162 0.0 0.0 0.00 0.00 0.00 99 1015.9
20260507110301 51 163 0.0 0.0 0.00 0.00 0.00 99 1016.1
20260507105758 51 138 0.0 0.0 0.00 0.00 0.00 99 1016.1
20260507105254 51 142 0.0 0.0 0.00 0.00 0.00 99 1016.1
20260507104752 50 141 0.0 0.0 0.00 0.00 0.00 99 1016.1
20260507104248 50 141 0.0 0.0 0.00 0.00 0.00 99 1015.9
20260507103744 50 140 0.0 0.0 0.00 0.00 0.00 99 1016.1
20260507103240 50 142 0.0 0.0 0.00 0.00 0.00 99 1016.5
20260507102737 50 143 0.0 0.0 0.00 0.00 0.00 99 1016.2
20260507102233 50 107 0.0 0.0 0.00 0.00 0.00 99 1016.3
20260507101730 50 107 0.0 0.0 0.00 0.00 0.00 99 1016.3
20260507101225 50 125 0.0 0.0 0.00 0.00 0.00 99 1016.3
20260507100722 50 125 0.0 0.0 0.00 0.00 0.00 98 1016.3
20260507100221 50 125 0.0 0.0 0.00 0.00 0.00 99 1016.1
20260507095718 50 126 0.0 0.0 0.00 0.00 0.00 98 1016.5
20260507095215 50 126 0.0 0.0 0.00 0.00 0.00 98 1016.5
20260507094712 50 126 0.0 0.0 0.00 0.00 0.00 98 1016.6
20260507094209 50 126 0.0 0.0 0.00 0.00 0.00 98 1016.9
20260507093705 51 126 0.0 0.0 0.00 0.00 0.00 98 1016.6
20260507093204 50 126 0.0 0.0 0.00 0.00 0.00 98 1016.7
20260507092701 50 126 0.0 0.0 0.00 0.00 0.00 98 1016.8
20260507092157 50 126 0.0 0.0 0.00 0.00 0.00 98 1016.7
20260507091654 51 126 0.0 0.0 0.00 0.00 0.00 98 1016.7
20260507091150 51 126 0.0 0.0 0.00 0.00 0.00 98 1016.7
20260507090646 51 126 0.0 0.0 0.00 0.00 0.00 98 1016.7
20260507090143 51 126 0.0 0.0 0.00 0.00 0.00 98 1016.7
20260507085640 50 126 0.0 0.0 0.00 0.00 0.00 98 1016.8
20260507085137 51 126 0.0 0.0 0.00 0.00 0.00 98 1017.0
20260507084634 51 127 0.0 0.0 0.00 0.00 0.00 98 1017.1
20260507084130 51 126 0.0 0.0 0.00 0.00 0.00 98 1017.0
20260507083627 51 126 0.0 0.0 0.00 0.00 0.00 97 1017.0
20260507083124 51 127 0.0 0.0 0.00 0.00 0.00 98 1017.1
20260507082619 51 127 1.0 1.0 0.00 0.00 0.00 98 1017.0
20260507082116 51 125 0.0 0.0 0.00 0.00 0.00 97 1017.1
20260507081613 51 132 0.0 0.0 0.00 0.00 0.00 97 1017.3
20260507081109 51 134 0.0 0.0 0.00 0.00 0.00 97 1017.2
20260507080606 51 134 0.0 0.0 0.00 0.00 0.00 97 1017.3
20260507075557 51 134 0.0 0.0 0.00 0.00 0.00 97 1017.3
20260507075054 51 134 0.0 0.0 0.00 0.00 0.00 97 1017.4
20260507074551 51 134 0.0 0.0 0.00 0.00 0.00 97 1017.5
20260507074049 51 135 0.0 0.0 0.00 0.00 0.00 96 1017.5
20260507073545 52 135 0.0 0.0 0.00 0.00 0.00 96 1017.5
20260507073042 52 139 0.0 0.0 0.00 0.00 0.00 96 1017.5
20260507072539 52 127 0.0 0.0 0.00 0.00 0.00 96 1017.3
20260507072036 52 127 0.0 0.0 0.00 0.00 0.00 96 1017.4
20260507071533 52 111 0.0 0.0 0.00 0.00 0.00 96 1017.6
20260507071030 52 109 1.0 1.0 0.00 0.00 0.00 96 1017.7
20260507070527 52 166 0.0 0.0 0.00 0.00 0.00 96 1017.5
20260507070024 52 178 0.0 0.0 0.00 0.00 0.00 96 1017.7
20260507065520 52 113 0.0 0.0 0.00 0.00 0.00 96 1017.4
20260507065018 52 113 1.0 1.0 0.00 0.00 0.00 96 1017.4
20260507064515 52 114 0.0 0.0 0.00 0.00 0.00 96 1017.5
20260507064014 52 114 0.0 1.0 0.00 0.00 0.00 96 1017.5
20260507063510 52 113 0.0 1.0 0.00 0.00 0.00 96 1017.7
20260507063008 52 123 0.0 1.0 0.00 0.00 0.00 95 1017.5
20260507062504 53 156 0.0 0.0 0.00 0.00 0.00 95 1017.7
20260507062002 53 156 0.0 0.0 0.00 0.00 0.00 95 1017.6
20260507061459 53 157 0.0 0.0 0.00 0.00 0.00 95 1017.8
20260507060958 53 156 0.0 0.0 0.00 0.00 0.00 95 1017.6
20260507060454 54 165 0.0 0.0 0.00 0.00 0.00 95 1017.7
20260507055951 54 162 0.0 0.0 0.00 0.00 0.00 95 1017.7
20260507055446 54 127 0.0 0.0 0.00 0.00 0.00 95 1017.7
20260507054943 53 127 0.0 0.0 0.00 0.00 0.00 95 1017.7
20260507054439 54 132 0.0 0.0 0.00 0.00 0.00 95 1017.7
20260507053937 54 131 0.0 0.0 0.00 0.00 0.00 95 1017.5
20260507053434 54 133 0.0 0.0 0.00 0.00 0.00 95 1017.6
20260507052932 54 133 0.0 0.0 0.00 0.00 0.00 95 1017.6
20260507052430 55 134 0.0 0.0 0.00 0.00 0.00 94 1017.5
20260507051927 55 134 0.0 0.0 0.00 0.00 0.00 94 1017.8
20260507051424 55 140 0.0 0.0 0.00 0.00 0.00 94 1017.5
20260507050921 55 144 0.0 0.0 0.00 0.00 0.00 94 1017.6
20260507050418 55 120 0.0 0.0 0.00 0.00 0.00 94 1017.5